Location: Novokuznetsk
(53.7500°N, 87.1000°E)
Time: 22:22:09
(UTC+06:00)

ISS - Pass Details

Date: 21 May 2021
Orbit: 417 x 422 km, 51.6° (Epoch: 16 June)

Event Time Altitude Azimuth Distance (km) Brightness Sun altitude
Rises 21:29:31 0° 260° (W) 2,364 0.5 -8.4°
Reaches altitude 10° 21:31:37 10° 257° (WSW) 1,501 -0.6 -8.6°
Maximum altitude 21:34:57 61° 177° (S) 484 -3.7 -8.9°
Drops below altitude 10° 21:38:17 10° 97° (E) 1,505 -1.3 -9.2°
Enters shadow 21:39:34 - 94° (E) 2,030 -0.7 -9.3°
